Weather History for KROX - January, 2013

Change the Weather History Date:

Wednesday, January 9, 2013

  Actual Average Record
Temperature  
Mean Temperature 24 °F -  
Max Temperature 30 °F 6 °F 44 °F (2012)
Min Temperature 19 °F -13 °F -44 °F (1993)
Degree Days  
Heating Degree Days 40    
Moisture  
Dew Point 18 °F    
Average Humidity 75    
Maximum Humidity 80    
Minimum Humidity 69    
Precipitation  
Precipitation 0.00 in - - ()
Sea Level Pressure  
Sea Level Pressure 29.96 in    
Wind  
Wind Speed 15 mph (WSW)    
Max Wind Speed 22 mph    
Max Gust Speed 37 mph    
Visibility 9 miles    
Events Snow    
Averages and records for this station are not official NWS values.
T = Trace of Precipitation, MM = Missing Value Source: NWS Daily Summary

Daily Weather History Graph

Daily Weather History Graph

Search for Another Location

Airport or City:

Trip Planner

Search our weather history database for the weather conditions in past years. The results will help you decide how hot, cold, wet, or windy it might be!

Date:

Astronomy

Jan. 09, 2013 Rise Set
Actual Time 8:14 AM CST 4:46 PM CST
Civil Twilight 7:37 AM CST 5:22 PM CST
Nautical Twilight 6:58 AM CST 6:02 PM CST
Astronomical Twilight 6:20 AM CST 6:40 PM CST
Moon 5:55 AM CST (1/9) 2:48 PM CST (1/9)
Length of Visible Light 9h 44m
Length of Day
8h 32m
Waning Crescent, 6% of the Moon is Illuminated
Jan 9
Waning Crescent
Jan 11
New
Jan 18
First Quarter
Jan 26
Full
Feb 3
Last Quarter

Hourly Weather History & Observations

Time (CST) Temp. Windchill Dew Point Humidity Pressure Visibility Wind Dir Wind Speed Gust Speed Precip Events Conditions
12:14 AM 30.2 °F 18.9 °F 24.8 °F 80% 29.54 in 10.0 mi WSW 16.1 mph 23.0 mph N/A   Overcast
12:35 AM 30.2 °F 18.5 °F 24.8 °F 80% 29.54 in 10.0 mi WSW 17.3 mph 25.3 mph N/A   Overcast
12:54 AM 30.2 °F 17.8 °F 23.0 °F 75% 29.56 in 7.0 mi West 19.6 mph 36.8 mph N/A Snow Light Snow
1:14 AM 28.4 °F 15.1 °F 21.2 °F 74% 29.57 in 10.0 mi West 20.7 mph 28.8 mph N/A   Overcast
1:34 AM 28.4 °F 15.4 °F 21.2 °F 74% 29.58 in 7.0 mi West 19.6 mph 28.8 mph N/A Snow Light Snow
1:54 AM 28.4 °F 16.2 °F 21.2 °F 74% 29.59 in 1.5 mi West 17.3 mph 26.5 mph N/A Snow Light Snow
2:14 AM 26.6 °F 14.7 °F 21.2 °F 80% 29.61 in 2.5 mi West 15.0 mph 26.5 mph N/A Snow Light Snow
2:34 AM 26.6 °F 15.2 °F 21.2 °F 80% 29.63 in 4.0 mi West 13.8 mph 18.4 mph N/A Snow Light Snow
2:54 AM 26.6 °F 12.7 °F 21.2 °F 80% 29.64 in 2.5 mi West 20.7 mph 26.5 mph N/A Snow Light Snow
3:14 AM 26.6 °F 13.4 °F 21.2 °F 80% 29.65 in 1.5 mi WNW 18.4 mph 32.2 mph N/A Snow Light Snow
3:34 AM 26.6 °F 13.8 °F 21.2 °F 80% 29.67 in 3.0 mi WNW 17.3 mph 27.6 mph N/A   Haze
3:54 AM 26.6 °F 12.7 °F 19.4 °F 74% 29.69 in 4.0 mi WNW 20.7 mph 27.6 mph N/A   Haze
4:14 AM 26.6 °F 12.7 °F 21.2 °F 80% 29.70 in 3.0 mi WNW 20.7 mph 31.1 mph N/A   Haze
4:34 AM 26.6 °F 12.7 °F 21.2 °F 80% 29.72 in 5.0 mi WNW 20.7 mph 27.6 mph N/A   Haze
4:54 AM 26.6 °F 13.1 °F 21.2 °F 80% 29.74 in 5.0 mi West 19.6 mph 29.9 mph N/A   Haze
5:14 AM 26.6 °F 12.7 °F 21.2 °F 80% 29.76 in 7.0 mi West 20.7 mph 26.5 mph N/A   Overcast
5:34 AM 26.6 °F 12.7 °F 19.4 °F 74% 29.78 in 10.0 mi West 20.7 mph 29.9 mph N/A   Overcast
5:54 AM 26.6 °F 12.7 °F 19.4 °F 74% 29.80 in 10.0 mi West 20.7 mph 29.9 mph N/A   Overcast
6:14 AM 26.6 °F 12.4 °F 19.4 °F 74% 29.82 in 10.0 mi WNW 21.9 mph 32.2 mph N/A   Overcast
6:34 AM 26.6 °F 12.4 °F 19.4 °F 74% 29.84 in 10.0 mi WNW 21.9 mph 31.1 mph N/A   Overcast
6:55 AM 26.6 °F 13.1 °F 19.4 °F 74% 29.86 in 10.0 mi WNW 19.6 mph 28.8 mph N/A   Overcast
7:14 AM 26.6 °F 13.4 °F 19.4 °F 74% 29.89 in 10.0 mi WNW 18.4 mph 28.8 mph N/A   Overcast
7:34 AM 26.6 °F 13.4 °F 19.4 °F 74% 29.91 in 10.0 mi WNW 18.4 mph 27.6 mph N/A   Overcast
7:55 AM 26.6 °F 13.1 °F 19.4 °F 74% 29.93 in 10.0 mi WNW 19.6 mph 25.3 mph N/A   Overcast
8:14 AM 26.6 °F 13.8 °F 19.4 °F 74% 29.95 in 10.0 mi WNW 17.3 mph 27.6 mph N/A   Overcast
8:34 AM 26.6 °F 14.7 °F 19.4 °F 74% 29.96 in 10.0 mi WNW 15.0 mph 25.3 mph N/A   Overcast
8:54 AM 26.6 °F 14.7 °F 19.4 °F 74% 29.97 in 10.0 mi WNW 15.0 mph 21.9 mph N/A   Overcast
9:14 AM 24.8 °F 13.4 °F 17.6 °F 74% 29.99 in 10.0 mi West 12.7 mph 21.9 mph N/A   Overcast
9:35 AM 24.8 °F 13.4 °F 17.6 °F 74% 30.01 in 10.0 mi West 12.7 mph 17.3 mph N/A   Overcast
9:54 AM 24.8 °F 12.9 °F 17.6 °F 74% 30.03 in 10.0 mi West 13.8 mph 17.3 mph N/A   Overcast
10:14 AM 24.8 °F 12.9 °F 17.6 °F 74% 30.04 in 10.0 mi West 13.8 mph 20.7 mph N/A   Overcast
10:35 AM 24.8 °F 12.9 °F 17.6 °F 74% 30.06 in 10.0 mi West 13.8 mph 21.9 mph N/A   Overcast
10:54 AM 24.8 °F 13.4 °F 17.6 °F 74% 30.07 in 10.0 mi West 12.7 mph 17.3 mph N/A   Overcast
11:14 AM 26.6 °F 15.7 °F 17.6 °F 69% 30.08 in 10.0 mi West 12.7 mph 18.4 mph N/A   Mostly Cloudy
11:35 AM 26.6 °F 16.8 °F 17.6 °F 69% 30.08 in 10.0 mi West 10.4 mph - N/A   Overcast
11:54 AM 26.6 °F 16.2 °F 19.4 °F 74% 30.08 in 10.0 mi West 11.5 mph 16.1 mph N/A   Overcast
12:14 PM 26.6 °F 17.5 °F 17.6 °F 69% 30.08 in 10.0 mi West 9.2 mph - N/A   Overcast
12:35 PM 26.6 °F 17.5 °F 17.6 °F 69% 30.06 in 10.0 mi West 9.2 mph - N/A   Overcast
12:54 PM 26.6 °F 17.5 °F 17.6 °F 69% 30.07 in 10.0 mi West 9.2 mph - N/A   Overcast
1:14 PM 26.6 °F 16.2 °F 17.6 °F 69% 30.07 in 10.0 mi West 11.5 mph - N/A   Overcast
1:35 PM 26.6 °F 18.2 °F 17.6 °F 69% 30.09 in 10.0 mi West 8.1 mph - N/A   Overcast
1:54 PM 26.6 °F 18.2 °F 17.6 °F 69% 30.11 in 10.0 mi West 8.1 mph - N/A   Overcast
2:15 PM 26.6 °F 16.8 °F 17.6 °F 69% 30.12 in 10.0 mi SW 10.4 mph - N/A   Overcast
2:34 PM 24.8 °F 16.1 °F 17.6 °F 74% 30.13 in 10.0 mi SW 8.1 mph - N/A   Scattered Clouds
2:55 PM 24.8 °F 16.1 °F 15.8 °F 69% 30.13 in 10.0 mi SW 8.1 mph - N/A   Clear
3:14 PM 23.0 °F 14.7 °F 15.8 °F 74% 30.16 in 10.0 mi SW 6.9 mph - N/A   Scattered Clouds
3:34 PM 24.8 °F 17.9 °F 15.8 °F 69% 30.16 in 10.0 mi SW 5.8 mph - N/A   Overcast
3:54 PM 24.8 °F 19.1 °F 15.8 °F 69% 30.15 in 10.0 mi SW 4.6 mph - N/A   Mostly Cloudy
4:14 PM 24.8 °F 16.1 °F 17.6 °F 74% 30.16 in 10.0 mi SSW 8.1 mph - N/A   Mostly Cloudy
4:34 PM 24.8 °F - 17.6 °F 74% 30.14 in 10.0 mi Calm Calm - N/A   Overcast
4:54 PM 24.8 °F 20.5 °F 17.6 °F 74% 30.15 in 10.0 mi SSW 3.5 mph - N/A   Mostly Cloudy
5:14 PM 21.2 °F 13.6 °F 15.8 °F 80% 30.14 in 10.0 mi South 5.8 mph - N/A   Scattered Clouds
5:34 PM 23.0 °F 11.7 °F 17.6 °F 80% 30.15 in 10.0 mi South 11.5 mph - N/A   Overcast
5:54 PM 24.8 °F 13.4 °F 17.6 °F 74% 30.16 in 10.0 mi South 12.7 mph - N/A   Overcast
6:14 PM 24.8 °F 14.0 °F 17.6 °F 74% 30.14 in 10.0 mi South 11.5 mph - N/A   Overcast
6:34 PM 24.8 °F 14.0 °F 17.6 °F 74% 30.14 in 10.0 mi South 11.5 mph - N/A   Overcast
6:55 PM 24.8 °F 14.0 °F 17.6 °F 74% 30.12 in 10.0 mi South 11.5 mph - N/A   Overcast
7:14 PM 24.8 °F 13.4 °F 17.6 °F 74% 30.12 in 10.0 mi South 12.7 mph - N/A   Overcast
7:34 PM 24.8 °F 14.0 °F 17.6 °F 74% 30.11 in 10.0 mi SSE 11.5 mph - N/A   Mostly Cloudy
7:55 PM 24.8 °F 14.6 °F 17.6 °F 74% 30.10 in 10.0 mi SSE 10.4 mph - N/A   Scattered Clouds
8:14 PM 23.0 °F 13.9 °F 15.8 °F 74% 30.08 in 10.0 mi SE 8.1 mph - N/A   Clear
8:34 PM 23.0 °F 15.8 °F 15.8 °F 74% 30.09 in 10.0 mi ESE 5.8 mph - N/A   Clear
8:55 PM 21.2 °F 16.4 °F 15.8 °F 80% 30.10 in 10.0 mi SE 3.5 mph - N/A   Clear
9:14 PM 19.4 °F 14.3 °F 12.2 °F 74% 30.10 in 10.0 mi ESE 3.5 mph - N/A   Clear
9:34 PM 21.2 °F 13.6 °F 15.8 °F 80% 30.08 in 10.0 mi ESE 5.8 mph - N/A   Clear
9:55 PM 21.2 °F 11.7 °F 15.8 °F 80% 30.06 in 10.0 mi ESE 8.1 mph - N/A   Clear
10:14 PM 21.2 °F 13.6 °F 15.8 °F 80% 30.06 in 10.0 mi East 5.8 mph - N/A   Clear
10:34 PM 21.2 °F 11.7 °F 15.8 °F 80% 30.05 in 10.0 mi ESE 8.1 mph - N/A   Clear
10:55 PM 21.2 °F 12.6 °F 14.0 °F 74% 30.04 in 10.0 mi ESE 6.9 mph - N/A   Clear
11:14 PM 21.2 °F 11.7 °F 14.0 °F 74% 30.03 in 10.0 mi ESE 8.1 mph - N/A   Clear
11:34 PM 21.2 °F 11.7 °F 15.8 °F 80% 30.03 in 10.0 mi SE 8.1 mph - N/A   Clear
11:55 PM 21.2 °F 12.6 °F 14.0 °F 74% 30.03 in 10.0 mi SSE 6.9 mph - N/A   Clear